Location: Buchdorf
(48.7842°N, 10.8275°E)
Time: 18:42:54
(UTC+00:00)

ISS - Visible Passes

Search period start: 07 March 2021 00:00
Search period end: 17 March 2021 00:00
Orbit: 417 x 422 km, 51.6° (Epoch: 07 March)

Date Brightness Start Highest point End Pass type
(mag) Time Alt. Az. Time Alt. Az. Time Alt. Az.
07 Mar -3.6 03:58:45 50° NW 03:59:27 67° NNE 04:02:48 10° E visible
08 Mar -2.0 03:13:11 32° ENE 03:13:11 32° ENE 03:15:13 10° E visible
08 Mar -3.4 04:46:09 15° WNW 04:48:44 50° SSW 04:51:59 10° SE visible
09 Mar -3.9 04:00:40 54° W 04:01:17 72° SSW 04:04:38 10° ESE visible
10 Mar -2.1 03:15:16 31° ESE 03:15:16 31° ESE 03:17:10 10° ESE visible
10 Mar -2.4 04:48:15 14° W 04:50:19 23° SW 04:53:02 10° SSE visible
11 Mar -3.0 04:02:59 34° SSW 04:02:59 34° SSW 04:06:02 10° SSE visible
12 Mar -1.4 03:17:51 17° SE 03:17:51 17° SE 03:18:48 10° SE visible
13 Mar -1.4 04:05:55 12° SSW 04:05:55 12° SSW 04:06:30 10° S visible
